Regional Weather Roundup
Issued by NWS Upton, NY

Current Version | Previous Version | Text Only | Print | Product List | Glossary On
Versions: 1 2 3 4 5 6 7 8 9 10 11 12 13 14 15 16 17 18 19 20 21 22 23 24 25 26 27 28 29 30 31 32 33 34 35 36 37 38 39 40 41 42 43 44 45 46 47 48 49 50
000
ASUS41 KOKX 011608
RWROKX

REGIONAL WEATHER ROUNDUP
NATIONAL WEATHER SERVICE NEW YORK NY
1200 PM EDT WED APR 01 2015

NOTE: "FAIR" INDICATES FEW OR NO CLOUDS BELOW 12,000 FEET WITH NO
SIGNIFICANT WEATHER AND/OR OBSTRUCTIONS TO VISIBILITY.

NYZ071-072-176-178-NJZ106-104-011700-
NEW YORK CITY METRO AREA


CITY           SKY/WX    TMP DP  RH WIND       PRES   REMARKS
CENTRAL PARK   MOSUNNY   41  12  30 W7        30.11S
LAGUARDIA APRT MOSUNNY   42  14  32 NW9       30.08S
KENNEDY INTL   MOSUNNY   45  10  24 NW13      30.09S
NEWARK/LIBERTY PTSUNNY   45  16  31 VRB5      30.09S
BRNX BOT. GARD   N/A    N/A N/A N/A W9        30.11R
TETERBORO      MOSUNNY   43  18  36 W9        30.08S
$$

NYZ177-179-078>081-011700-
LONG ISLAND NEW YORK

CITY           SKY/WX    TMP DP  RH WIND       PRES   REMARKS
FARMINGDALE    SUNNY     43   9  24 N7        30.06S
ISLIP          MOSUNNY   44   7  21 N12G18    30.04S
SHIRLEY        SUNNY     42   9  25 VRB7      30.05F
WESTHAMPTON    SUNNY     43  14  31 NW14G20   30.05S
MONTAUK POINT    N/A     41  15  35 W7        30.02S
$$

NYZ052-065-067-011700-
HUDSON VALLEY

CITY           SKY/WX    TMP DP  RH WIND       PRES   REMARKS
WHITE PLAINS   SUNNY     40  12  32 W8G18     30.05S WCI  34
NEWBURGH       MOSUNNY   37  25  60 VRB6      30.07S WCI  33
MONTGOMERY     SUNNY     42  22  44 SE6       30.05S
POUGHKEEPSIE   SUNNY     42   9  25 NW8       30.06S
ALBANY         MOSUNNY   41   4  21 N7        30.07R
$$

NJZ001-105-106-008-010-013-015-019>022-104-011700-
NEW JERSEY

CITY           SKY/WX    TMP DP  RH WIND       PRES   REMARKS
NEWARK/LIBERTY PTSUNNY   45  16  31 VRB5      30.09S
TETERBORO      MOSUNNY   43  18  36 W9        30.08S
CALDWELL       MOSUNNY   40  17  39 W9        30.10R WCI  34
MORRISTOWN     PTSUNNY   41  25  52 NW6       30.12R
SOMERVILLE     PTSUNNY   42  17  36 NW9       30.10R
SUSSEX         MOSUNNY   38  21  50 W7        30.09R WCI  33
ANDOVER          N/A     39  20  46 N7        30.09R WCI  34
TRENTON        SUNNY     45  21  38 N12       30.10S
MILLVILLE      SUNNY     47  25  42 N12       30.11F
ATLANTIC CITY  SUNNY     49  20  31 NW15      30.09F
WRIGHTSTOWN    SUNNY     46  20  34 NW12      30.07S
TOMS RIVER     SUNNY     46  18  31 NW9G16    30.09F
BELMAR         SUNNY     45  16  31 NW6       30.08S
$$

PAZ047>061-062-071-011700-
EASTERN PENNSYLVANIA

CITY           SKY/WX    TMP DP  RH WIND       PRES   REMARKS
PHILADELPHIA   MOSUNNY   47  23  38 NW10      30.13S
ALLENTOWN      CLOUDY    43  28  55 N7G20     30.12R
SCRANTON       MOSUNNY   38  26  62 NW10      30.10R WCI  31
$$

CTZ002-004>006-009-010-012-RIZ004-006-007-MAZ004-011-015-011700-
SOUTHERN NEW ENGLAND
 IN CT

CITY           SKY/WX    TMP DP  RH WIND       PRES   REMARKS
BRADLEY INTL   PTSUNNY   44   4  19 W6        30.01S
HARTFORD       MOSUNNY   44   6  21 N13G20    30.02F
DANBURY        SUNNY     41  11  29 NW10      30.05S
WTRBRY/OXFORD  PTSUNNY   37  10  32 N9        30.03S WCI  31
BRIDGEPORT     SUNNY     44   9  23 NW12G21   30.04F
MERIDEN        SUNNY     44   7  21 N9        30.02F
NEW HAVEN      MOSUNNY   43   9  24 W7        30.03S
CHESTER        FAIR      39   5  24 NW9       30.01F WCI  33
GROTON         SUNNY     44   5  20 NW13G23   30.00S
WILLIMANTIC    SUNNY     42   6  22 N9        30.00F

 IN RI

CITY           SKY/WX    TMP DP  RH WIND       PRES   REMARKS
PROVIDENCE     MOSUNNY   44   5  20 N16G23    29.99F
BLOCK ISLAND   MOSUNNY   41  14  33 NW9       30.00R
WESTERLY       SUNNY     43   7  22 NW12G18   30.00S

 IN MA

CITY           SKY/WX    TMP DP  RH WIND       PRES   REMARKS
BOSTON         MOSUNNY   41   6  23 NW15G21   29.98F
WORCESTER      SUNNY     36   4  26 NW15      29.95F WCI  27
WESTFIELD      MOSUNNY   41   2  19 W9        30.00F
PROVINCETOWN   SUNNY     37  18  44 N14       29.99R WCI  29
NANTUCKET      SUNNY     41  18  39 N24       29.96R
$$

ANZ330-335-338-340-345-350-353-355-011700-
COASTAL MARINE OBSERVATIONS


STATION/POSITION TIME  SKY/WX   TEMP    WIND        PRES    VSBY  WAVE
                                AIR SEA DIR/SP/G                  HT/PER
                 (UTC)          (F)     (DEG/KT/KT) (MB)    (MI)  (FT/S)
NY HARB ENTRANCE 1550            38 39  310/ 10/ 14 1018.6          2/ 3
4S FIRE IS       1503               37                N/A           2/ 8
20S FIRE ISLAND  NOT AVBL
23SW MTP         1550                                 N/A           3/ 9
HUDSON CANYON    NOT AVBL
EXECUTION ROCKS  NOT AVBL
WESTERN LI SOUND NOT AVBL
CENTRAL LI SOUND NOT AVBL
EASTERN LI SOUND NOT AVBL
ROBBINS REEF     1500            37     300/  5/  6 1017.9
$$


>>>>>>>>>>>>>>>>>>>>>>>>>>>> KEY <<<<<<<<<<<<<<<<<<<<<<<<<<<
>                                                          <
>     SKY/WX - SKY CONDITION/PRESENT WEATHER               <
>     TMP    - TEMPERATURE IN FAHRENHEIT                   <
>     DP     - DEWPOINT IN FAHRENHEIT                      <
>     RH     - RELATIVE HUMIDITY IN PERCENT                <
>     WIND   - DIRECTION AND SPEED IN MPH                  <
>     PRES   - MEAN SEA LEVEL PRESSURE IN INCHES OF HG     <
>     WCI    - WIND CHILL INDEX                            <
>     VSB    - VISIBILITY IN MILES                         <
>     HX     - HEAT INDEX                                  <
>     TC     - TEMPERATURE IN CELSIUS                      <
>     VRB    - VARIABLE WIND DIRECTION                     <
>                                                          <
>>>>>>>>>>>>>>>>>>>>>>>>>>>> KEY <<<<<<<<<<<<<<<<<<<<<<<<<<<




USA.gov is the U.S. government's official web portal to all federal, state and local government web resources and services.